Regional Weather Roundup
Issued by NWS

Home | Current Version | Previous Version | Graphics & Text | Print | Product List | Glossary On
Versions: 1 2 3 4 5 6 7 8 9 10 11 12 13 14 15 16 17 18 19 20 21 22 23 24 25 26 27 28 29 30 31 32 33 34 35 36 37 38 39 40 41 42 43 44 45 46 47 48 49 50
000
ASUS43 KBIS 181820
RWRND

NORTH DAKOTA REGIONAL WEATHER ROUNDUP
NATIONAL WEATHER SERVICE BISMARCK ND
100 PM CDT FRI APR 18 2014

NOTE: "FAIR" INDICATES FEW OR NO CLOUDS BELOW 12,000 FEET WITH NO
SIGNIFICANT WEATHER AND/OR OBSTRUCTIONS TO VISIBILITY.


NDZ001>003-009>011-017-181900-
NORTHWEST NORTH DAKOTA

CITY           SKY/WX    TMP DP  RH WIND       PRES   REMARKS
WILLISTON      CLOUDY    48  29  47 SE16G24   29.77F
6HR MIN TEMP:  35; 6HR MAX TEMP:  48;

MINOT          LGT RAIN  46  24  42 SE30G38   29.92F
MINOT AFB      CLOUDY    45  28  51 SE30G38   29.92F
$$

NDZ018>021-031>035-040>046-181900-
SOUTHWEST NORTH DAKOTA

CITY           SKY/WX    TMP DP  RH WIND       PRES   REMARKS
BISMARCK       MOSUNNY   54  31  41 SE23G33   29.90F
6HR MIN TEMP:  35; 6HR MAX TEMP:  54;

DICKINSON      MOSUNNY   52  32  46 SE23G31   29.77F
GARRISON         N/A     49  27  42 SE26G38   29.89F
6HR MIN TEMP:  33; 6HR MAX TEMP:  49;

HETTINGER ARPT PTSUNNY   53  34  48 SE22      29.78F
$$

NDZ004>008-012>016-024-026-027-054-181900-
NORTHEAST NORTH DAKOTA

CITY           SKY/WX    TMP DP  RH WIND       PRES   REMARKS
GRAND FORKS    PTSUNNY   49  22  34 SE22G30   30.20F
GRND FRKS AFB  MOSUNNY   49  22  34 SE24G33   30.19F
DEVILS LAKE    CLOUDY    45  25  45 SE23G33   30.06F
$$

NDZ022-023-025-028>030-036>039-047>053-181900-
SOUTHEAST NORTH DAKOTA

CITY           SKY/WX    TMP DP  RH WIND       PRES   REMARKS
FARGO          CLOUDY    46  26  45 SE16G29   30.19F
6HR MIN TEMP:  35; 6HR MAX TEMP:  46; 6HR PCP: TRACE;

JAMESTOWN      PTSUNNY   48  25  40 SE29G38   30.04F
$$




USA.gov is the U.S. government's official web portal to all federal, state and local government web resources and services.